Volver al catálogo

ORBCOMM FM 25

ActivoComunicacionesLEO
NORAD 25479·PAYLOAD·🇺🇸 United States

Lanzado Sep 23, 1998 desde Cape Canaveral Space Force Station

Loading…

Próximos Pases (próximas 24 horas)

TLE

ActualizadoSource: Space-Track

Época: Sep 14, 2026, 11:32 UTC

1 25479U 98053E   26257.48102838  .00000545  00000-0  21987-3 0  9992
2 25479  45.0062 271.1961 0004945 331.9994  28.0588 14.39212284463160

Sigue ORBCOMM FM 25 en tiempo real con AllMySat

Download on the App Store